User: anonymous   Login
Location: Unspecified
(0.0000°N, 0.0000°E)
Time: 18:51:33
(UTC+00:00)
Language:

CSTB 1 - Orbit

View from above orbital plane
View from above orbital plane
View from above satellite
View from above satellite

Ground track
Ground track

The orbit data is extracted from the following two-line orbital elements,

1 31122U 07012F   19077.65670475 +.00000160 +00000-0 +41343-4 0  9999
2 31122 098.1084 030.0826 0077121 284.9776 074.2897 14.60851543634086
Epoch (UTC): 18 March 2019 15:45:39
Eccentricity: 0.0077121
inclination: 98.1084°
perigee height: 636 km
apogee height: 745 km
right ascension of ascending node: 30.0826°
argument of perigee: 284.9776°
revolutions per day: 14.60851543
mean anomaly at epoch: 74.2897°
orbit number at epoch: 63408

The dashed part of the orbit path shows where the satellite is in the earth's shadow,  

DLR